Wind_Speed
12 12 11 12 13 14 13 12 10 10 12 13 15 19 22 25 28 30 33 34 32 27 24 21 20 20 20 21 23 26 29 32 36 38 39 41 41 40 39 38 37 37 38 38
13 12 11 11 12 12 10 9 8 8 10 12 15 18 22 24 26 28 29 29 26 20 15 11 11 12 13 15 17 20 23 26 29 31 33 35 35 34 33 33 33 34 34 34
12 11 11 10 10 9 7 6 7 8 10 12 15 17 20 22 23 25 26 25 23 18 12 7 4 4 7 9 12 16 19 22 25 27 28 29 29 29 28 29 29 30 31 32
12 11 10 9 8 7 6 6 7 8 10 12 15 17 19 20 22 22 22 21 20 17 12 8 5 5 6 8 11 14 17 20 22 23 24 24 24 24 25 25 26 29 31 35
12 11 10 8 7 7 6 6 7 8 10 12 15 16 17 18 19 19 19 18 18 16 13 10 7 7 8 10 12 14 17 19 20 21 20 21 21 22 23 24 26 30 33 36
12 11 11 9 8 7 6 6 6 7 9 11 13 15 16 16 16 15 16 15 14 14 13 12 10 9 10 11 12 13 14 15 16 15 17 18 18 20 23 25 28 31 33 35
13 13 12 11 9 8 7 6 6 7 8 10 12 13 14 14 14 13 12 12 12 12 12 12 11 11 11 11 11 10 10 11 10 11 13 15 17 20 22 24 26 29 31 34
15 14 14 12 10 9 7 6 6 7 8 9 11 11 12 12 12 11 11 10 10 10 10 10 10 10 9 9 8 7 7 6 6 7 9 11 13 15 18 21 25 29 32 35
16 15 14 13 12 10 8 7 6 7 8 9 10 10 11 10 10 9 9 9 8 8 8 8 9 9 8 7 6 5 3 1 2 4 7 10 13 16 19 23 26 30 33 37
16 16 15 14 13 12 10 8 7 8 8 9 9 10 10 9 9 8 8 8 7 6 6 6 7 7 7 6 5 4 3 3 5 8 10 13 16 19 22 26 29 32 35 38
18 17 17 16 15 13 12 10 9 9 9 9 9 9 9 9 9 8 7 7 6 5 4 5 5 5 5 5 6 6 7 9 11 13 16 18 20 23 26 28 31 34 38 41
20 20 18 17 17 15 14 12 11 10 10 10 10 10 10 10 9 8 8 7 6 5 4 5 5 5 6 8 9 11 13 14 16 18 20 22 24 26 28 31 33 37 41 45
21 21 20 19 18 17 16 14 13 12 12 11 11 10 10 10 10 9 9 8 7 6 6 6 7 8 9 11 13 15 17 19 20 21 23 24 26 28 30 33 36 40 45 50
21 22 21 21 20 19 18 17 16 15 14 13 12 12 11 11 11 10 10 9 8 8 8 8 9 11 13 15 17 19 20 21 22 23 24 26 28 30 32 36 41 45 49 54
22 22 22 23 22 21 20 19 18 17 16 15 14 13 12 12 12 11 11 10 10 10 10 11 13 14 16 18 20 21 22 23 23 25 26 27 29 32 36 40 44 49 53 58
22 22 23 23 23 22 21 20 19 18 17 16 15 14 14 13 13 12 12 12 12 12 13 14 15 17 19 20 22 23 23 24 25 26 28 29 32 35 39 43 47 52 56 59
21 21 22 23 24 23 22 20 19 18 17 17 16 16 15 14 14 13 13 13 13 14 15 16 18 19 21 22 23 24 24 25 26 28 29 32 34 38 42 46 50 54 57 60
19 20 21 22 23 23 22 20 20 19 18 18 17 17 17 16 15 15 14 14 15 16 17 18 20 21 22 23 24 24 25 26 27 29 31 34 37 40 44 48 52 55 58 58
18 19 19 21 21 21 21 21 21 20 20 19 18 18 18 17 17 17 16 16 16 17 19 20 21 22 23 24 25 25 26 27 29 31 33 36 39 42 46 50 53 56 57 53
16 17 18 19 20 20 20 21 21 21 21 20 20 20 19 19 18 18 18 17 18 18 20 21 22 23 24 24 25 26 27 28 30 32 35 38 40 44 48 51 54 55 52 45
14 14 15 17 18 19 20 20 21 21 21 21 21 21 21 21 20 20 19 19 19 20 21 22 22 23 24 25 26 27 28 30 32 34 36 39 42 46 49 52 54 53 46 38
13 14 14 15 16 17 18 19 20 20 21 22 22 22 22 22 21 20 20 20 21 21 22 22 23 24 25 26 27 28 30 31 33 35 37 40 44 47 51 53 53 48 40 32
13 14 14 14 15 16 16 17 18 19 20 20 21 21 22 22 21 21 21 21 22 22 22 23 24 25 26 27 28 29 30 32 34 36 38 41 45 48 52 53 50 43 34 27
14 15 15 15 15 15 16 17 18 19 20 21 21 21 21 21 21 21 21 22 22 23 23 24 25 26 27 28 29 30 31 33 34 36 39 43 46 50 52 52 45 36 28 23
18 18 17 17 18 18 18 18 18 19 20 21 21 22 22 22 22 22 23 23 24 24 25 26 26 27 28 29 30 31 32 33 35 37 40 44 48 51 51 48 40 30 24 21
23 22 22 21 21 20 20 20 21 21 21 22 22 22 23 23 24 25 26 26 26 26 27 27 28 28 29 30 30 31 32 34 35 38 41 46 49 50 49 43 34 26 22 21
27 27 26 26 26 25 25 25 25 24 24 24 24 24 24 25 26 27 27 27 27 27 28 28 28 29 29 30 30 31 32 34 36 39 43 46 49 49 45 38 30 24 22 22
Wind_Direction
233 240 250 257 265 273 276 278 287 296 305 313 320 322 325 328 329 329 327 325 321 314 304 289 277 265 251 242 236 232 227 224 225 225 225 225 226 229 232 237 243 248 253 257
241 246 249 254 263 268 272 281 295 309 319 327 331 334 336 337 337 337 337 337 337 333 325 307 279 258 241 231 224 217 214 214 217 217 217 217 219 224 230 236 243 249 254 259
243 248 251 254 259 262 269 284 300 315 325 330 336 339 340 342 343 345 347 350 352 353 349 343 313 234 209 205 200 198 196 199 202 204 206 210 214 221 228 237 243 249 255 261
242 249 253 256 256 259 263 280 297 313 328 335 340 342 344 346 349 353 357 2 6 11 17 31 61 106 143 160 166 171 176 182 188 192 197 205 211 219 229 237 245 251 257 262
241 247 248 245 246 247 260 279 298 314 324 334 339 342 345 348 353 359 4 10 18 26 35 46 67 92 116 134 146 155 165 173 179 185 195 204 212 221 230 239 249 256 260 264
237 237 237 234 237 241 255 276 298 314 323 329 337 343 347 351 355 360 8 15 24 34 44 54 70 89 105 119 132 145 156 167 176 187 199 206 219 233 242 249 257 263 267 271
230 229 229 230 233 237 251 272 296 316 324 331 337 344 350 354 358 2 8 21 31 38 45 55 69 88 100 108 121 135 149 164 180 199 211 224 237 243 250 259 267 274 280 284
223 225 225 227 231 237 249 267 297 317 324 331 338 344 350 353 358 7 13 16 26 36 44 54 69 84 98 109 120 133 154 176 196 220 235 252 263 268 271 277 283 287 290 292
222 225 226 228 235 239 246 262 288 312 322 327 334 339 343 347 349 352 359 7 15 26 43 57 70 78 86 97 100 101 105 168 251 275 278 281 286 289 292 293 294 295 297 298
223 225 226 229 233 237 245 259 279 299 311 317 322 329 334 338 342 345 347 355 4 16 30 43 53 57 58 60 57 47 21 341 316 307 304 303 301 301 301 301 302 304 305 306
224 227 228 230 234 239 246 257 272 289 300 304 310 315 322 325 328 332 338 343 348 359 13 23 26 26 25 19 10 356 342 332 324 318 314 311 310 309 310 310 310 310 310 310
225 229 231 232 236 242 248 256 267 280 289 292 297 302 309 315 315 316 318 321 325 330 339 348 353 353 352 347 342 336 331 326 322 319 317 316 315 314 314 313 313 313 312 312
228 231 234 234 238 244 249 256 264 271 276 279 286 292 298 304 305 303 302 300 300 304 312 319 326 330 331 330 329 326 323 321 320 319 317 317 316 315 315 315 315 314 314 314
231 232 234 236 240 245 250 255 261 266 269 271 275 281 285 293 296 294 291 288 286 290 297 304 311 316 319 321 321 320 319 318 318 318 318 317 317 317 317 317 317 317 317 317
234 234 235 238 241 246 251 255 259 263 264 264 267 272 278 283 288 287 283 279 279 283 289 297 303 308 312 315 317 317 317 317 317 318 318 318 317 317 318 318 318 319 319 319
238 237 238 240 242 245 249 253 257 259 259 260 262 266 273 277 280 281 278 275 276 280 287 294 301 306 310 313 315 315 315 316 316 317 317 317 317 318 318 319 320 321 321 321
239 239 239 240 242 244 247 250 253 254 255 257 260 263 268 272 274 277 275 274 276 281 287 294 300 304 308 311 312 313 314 314 315 316 316 317 317 318 320 321 322 322 323 323
241 241 240 241 242 243 245 247 249 251 252 255 258 261 265 268 270 274 274 274 277 282 287 293 298 303 306 309 310 312 313 313 314 315 316 317 318 320 321 323 323 324 325 325
241 242 243 243 243 244 244 245 248 249 250 253 256 258 261 265 268 271 272 274 278 283 288 293 297 302 305 308 310 311 312 312 314 315 316 318 319 321 323 324 325 326 326 327
244 245 246 246 245 245 247 247 248 247 248 250 252 255 259 263 267 269 270 273 278 283 288 293 297 301 304 307 309 310 311 312 314 315 317 319 320 322 324 326 326 327 328 328
249 250 252 250 247 246 248 248 246 245 246 249 252 255 258 261 264 267 269 273 278 283 288 293 297 301 304 307 309 309 310 312 313 315 317 319 322 324 326 327 328 328 327 327
252 254 255 253 249 248 247 246 245 245 246 249 253 255 257 261 263 265 270 274 278 283 288 293 297 300 304 306 308 309 310 312 313 315 318 320 323 325 327 328 328 328 326 325
254 254 255 254 251 250 248 247 246 246 246 248 248 251 256 259 263 266 271 274 278 283 289 293 297 301 304 306 308 309 310 312 314 316 319 321 324 326 328 329 328 327 324 322
259 256 256 255 255 253 251 251 250 248 247 248 248 251 256 260 264 268 271 275 279 284 288 293 297 301 305 306 308 309 310 312 314 317 320 323 325 327 329 329 328 325 322 320
263 262 261 260 260 259 257 254 251 249 249 249 250 252 255 258 261 265 269 274 279 284 288 293 297 301 304 306 308 309 311 313 315 317 320 324 326 328 329 329 327 323 318 316
265 264 264 264 263 263 262 260 257 254 252 252 252 252 254 256 259 263 268 273 277 283 288 292 297 301 304 306 307 309 311 313 315 318 321 325 327 329 330 329 326 320 314 312
267 266 266 264 263 262 262 262 261 259 258 256 255 255 256 258 260 264 268 273 277 282 287 291 296 301 304 306 307 309 311 313 316 318 322 326 328 329 330 328 323 316 311 310
Height
5646 5647 5648 5649 5649 5649 5649 5649 5649 5648 5645 5643 5639 5635 5630 5624 5617 5609 5599 5589 5578 5569 5562 5557 5556 5555 5556 5558 5561 5566 5571 5578 5585 5593 5601 5609 5617 5624 5631 5636 5640 5643 5645 5647
5642 5643 5644 5645 5645 5645 5645 5644 5644 5642 5641 5638 5634 5630 5625 5619 5612 5604 5595 5585 5574 5566 5559 5555 5553 5553 5553 5555 5558 5562 5567 5574 5581 5588 5596 5604 5612 5619 5625 5629 5633 5636 5637 5638
5639 5640 5641 5642 5642 5641 5641 5641 5640 5639 5638 5635 5631 5626 5621 5616 5609 5601 5593 5584 5575 5567 5561 5557 5554 5553 5554 5555 5558 5561 5566 5573 5580 5587 5594 5602 5608 5614 5619 5623 5626 5628 5629 5629
5636 5637 5638 5640 5638 5638 5638 5638 5638 5636 5634 5632 5628 5623 5618 5613 5607 5600 5593 5585 5577 5571 5565 5561 5559 5557 5557 5558 5560 5564 5568 5574 5580 5587 5593 5599 5605 5611 5615 5618 5620 5620 5621 5621
5633 5633 5635 5636 5636 5636 5636 5636 5635 5634 5631 5629 5625 5621 5617 5612 5607 5601 5595 5588 5582 5576 5571 5567 5565 5563 5563 5563 5565 5568 5571 5576 5581 5587 5592 5598 5602 5606 5609 5611 5613 5613 5613 5612
5629 5630 5632 5634 5634 5633 5635 5634 5633 5631 5629 5627 5624 5621 5617 5612 5607 5602 5597 5591 5586 5581 5577 5573 5571 5569 5569 5569 5571 5573 5576 5580 5584 5588 5593 5597 5600 5603 5605 5606 5607 5606 5605 5604
5626 5627 5629 5631 5631 5632 5633 5633 5631 5629 5627 5625 5622 5619 5616 5611 5607 5603 5599 5594 5590 5586 5582 5579 5577 5576 5575 5575 5577 5579 5581 5584 5588 5591 5593 5596 5598 5600 5601 5601 5601 5599 5597 5595
5622 5624 5628 5627 5628 5629 5630 5629 5627 5626 5625 5623 5620 5617 5614 5611 5607 5604 5600 5597 5593 5590 5587 5585 5583 5582 5581 5581 5582 5583 5585 5587 5589 5591 5593 5594 5595 5596 5596 5595 5594 5592 5589 5585
5620 5623 5623 5623 5624 5625 5626 5625 5625 5624 5622 5620 5618 5616 5613 5610 5608 5605 5602 5599 5596 5593 5591 5589 5588 5587 5586 5586 5586 5587 5588 5589 5590 5591 5592 5592 5592 5591 5590 5588 5586 5583 5580 5575
5615 5617 5618 5620 5621 5621 5622 5622 5621 5621 5620 5618 5616 5614 5612 5610 5607 5605 5602 5600 5598 5596 5594 5592 5591 5590 5590 5589 5589 5589 5590 5590 5590 5590 5589 5588 5587 5586 5584 5581 5578 5574 5569 5564
5610 5612 5614 5615 5616 5618 5618 5618 5618 5618 5617 5616 5614 5613 5611 5609 5606 5604 5602 5600 5598 5597 5595 5594 5593 5592 5592 5591 5590 5590 5589 5589 5588 5587 5585 5584 5582 5579 5576 5573 5569 5565 5560 5554
5606 5607 5609 5611 5612 5613 5614 5614 5614 5614 5613 5612 5611 5610 5609 5607 5605 5603 5602 5600 5598 5597 5596 5595 5594 5593 5592 5591 5590 5589 5587 5586 5584 5582 5580 5578 5575 5572 5569 5566 5561 5557 5551 5544
5600 5602 5604 5606 5607 5608 5609 5610 5610 5610 5610 5609 5608 5607 5606 5605 5603 5602 5600 5599 5598 5597 5596 5595 5593 5592 5591 5590 5588 5586 5585 5582 5580 5578 5575 5572 5569 5566 5562 5558 5553 5547 5541 5533
5594 5596 5598 5600 5601 5603 5604 5605 5605 5605 5605 5605 5605 5604 5603 5602 5601 5599 5598 5597 5596 5595 5594 5593 5592 5591 5589 5587 5585 5583 5581 5578 5576 5573 5570 5567 5563 5559 5555 5550 5544 5537 5530 5521
5588 5590 5592 5594 5595 5597 5598 5599 5600 5600 5600 5600 5600 5600 5599 5599 5598 5596 5595 5595 5594 5593 5592 5591 5590 5588 5586 5584 5582 5579 5576 5574 5571 5567 5564 5561 5557 5553 5548 5542 5535 5528 5519 5509
5582 5584 5586 5587 5589 5590 5592 5593 5594 5595 5595 5595 5596 5595 5595 5595 5594 5593 5592 5592 5591 5590 5589 5588 5587 5585 5583 5580 5578 5575 5572 5569 5566 5562 5559 5555 5551 5546 5540 5534 5526 5518 5508 5497
5576 5577 5579 5581 5582 5584 5586 5587 5588 5589 5590 5590 5590 5591 5590 5590 5590 5589 5589 5588 5588 5587 5586 5584 5583 5580 5578 5576 5573 5570 5567 5564 5560 5557 5553 5549 5544 5538 5532 5525 5517 5507 5497 5486
5570 5571 5573 5574 5576 5578 5579 5581 5582 5583 5584 5585 5585 5585 5585 5585 5585 5585 5584 5584 5583 5582 5581 5580 5578 5576 5573 5571 5568 5565 5562 5558 5555 5551 5547 5542 5537 5531 5524 5516 5507 5497 5486 5475
5564 5565 5567 5568 5570 5571 5573 5574 5576 5577 5578 5579 5579 5580 5580 5580 5580 5580 5579 5579 5578 5577 5576 5574 5573 5571 5568 5565 5562 5559 5556 5552 5549 5545 5540 5535 5529 5523 5515 5507 5497 5487 5476 5465
5559 5560 5561 5563 5564 5566 5567 5568 5569 5571 5572 5573 5574 5574 5575 5575 5575 5575 5574 5574 5573 5572 5571 5569 5567 5565 5563 5560 5557 5554 5550 5547 5543 5538 5533 5528 5522 5515 5507 5498 5488 5477 5466 5456
5555 5555 5556 5557 5558 5560 5561 5562 5563 5565 5566 5567 5568 5568 5569 5569 5569 5569 5568 5568 5568 5566 5565 5563 5561 5559 5557 5554 5551 5548 5544 5540 5536 5531 5526 5520 5514 5506 5498 5488 5478 5468 5458 5449
5550 5551 5552 5553 5553 5554 5555 5556 5557 5558 5560 5561 5562 5562 5563 5563 5563 5563 5563 5562 5562 5560 5559 5557 5555 5553 5551 5548 5545 5541 5537 5533 5529 5524 5518 5512 5505 5497 5489 5479 5469 5459 5450 5443
5546 5547 5547 5548 5549 5549 5550 5551 5552 5553 5554 5555 5556 5556 5557 5557 5557 5557 5557 5556 5555 5554 5553 5551 5549 5547 5544 5541 5538 5534 5530 5526 5522 5516 5511 5504 5497 5488 5479 5469 5460 5450 5443 5437
5541 5542 5543 5543 5544 5545 5545 5546 5546 5547 5548 5549 5550 5550 5551 5551 5551 5551 5551 5550 5549 5548 5546 5545 5543 5540 5538 5535 5531 5527 5523 5519 5514 5509 5503 5496 5488 5480 5470 5460 5451 5443 5437 5432
5536 5537 5537 5538 5539 5539 5540 5540 5541 5541 5542 5543 5543 5544 5545 5545 5545 5545 5544 5543 5542 5541 5540 5538 5536 5534 5531 5528 5524 5520 5516 5511 5506 5501 5495 5488 5480 5471 5461 5452 5444 5437 5432 5428
5530 5530 5531 5532 5532 5533 5533 5534 5535 5535 5536 5536 5537 5537 5538 5538 5538 5537 5537 5536 5535 5534 5533 5531 5529 5526 5524 5520 5517 5513 5508 5504 5499 5493 5487 5479 5471 5462 5453 5444 5437 5432 5427 5423
5522 5522 5523 5523 5524 5525 5526 5526 5527 5528 5528 5529 5530 5530 5530 5530 5530 5530 5529 5529 5528 5527 5525 5524 5522 5519 5516 5513 5509 5505 5501 5496 5491 5485 5479 5471 5463 5454 5445 5438 5431 5426 5422 5419